Weather Service Report


762 
ASUS45 KBOU 211407
RWRCO 

WEATHER ROUNDUP FOR COLORADO
NATIONAL WEATHER SERVICE DENVER/BOULDER CO
800 AM MDT SUN SEP 21 2014

NOTE: "FAIR" INDICATES FEW OR NO CLOUDS BELOW 12000 FEET WITH NO
SIGNIFICANT WEATHER AND/OR OBSTRUCTIONS TO VISIBILITY.

COZ001>005-013-030-031-211500-
...NORTHWEST COLORADO...
  
CITY           SKY/WX    TMP DP  RH WIND       PRES   REMARKS
CRAIG          PTSUNNY   44  37  76 SE3       30.33R                  
HAYDEN         MOSUNNY   50  36  57 CALM      30.33R                  
MEEKER         NOT AVBL                                               
MOUNT WERNER   NOT AVBL                                               
STEAMBOAT SPGS PTSUNNY   47  40  75 CALM      30.36R                  
WALDEN         SUNNY     36  32  87 SE3       30.45R                  
$$

COZ006>008-011-211500-
...WEST CENTRAL VALLEYS...
  
CITY           SKY/WX    TMP DP  RH WIND       PRES   REMARKS
GRAND JUNCTION LGT RAIN  62  55  77 S16G24    30.28R                  
MONTROSE       LGT RAIN  59  55  87 S8        30.39R                  
EAGLE          PTSUNNY   52  43  71 CALM      30.40R                  
RIFLE          CLOUDY    57  46  66 CALM      30.29R                  
DELTA          RAIN      62  58  87 NE8       30.36R                  
NUCLA          CLOUDY    61  50  67 SE14      30.34S                  
$$

COZ017>023-064>068-211500-
...SOUTHWEST COLORADO...
  
CITY           SKY/WX    TMP DP  RH WIND       PRES   REMARKS
DURANGO        PTSUNNY   58  53  84 CALM      30.38S                  
CORTEZ         MOSUNNY   59  57  93 CALM      30.30S                  
PAGOSA SPRINGS PTSUNNY   54  52  93 CALM      30.45R                  
TELLURIDE      NOT AVBL                                               
WOLF CREEK PAS CLOUDY    41  41 100 SE3       30.70R                  
$$

COZ009-010-012-014-032>034-037-058>063-211500-
...CENTRAL COLORADO...
  
CITY           SKY/WX    TMP DP  RH WIND       PRES   REMARKS
ASPEN          CLOUDY    55  42  61 N3        30.42R                  
BUENA VISTA    DRIZZLE   54  50  86 CALM      30.51R                  
COPPER MTN     PTSUNNY   48  37  66 S21       30.69R                  
BERTHOUD PASS  FAIR      37  36  93 MISG      30.73S                  
COTTONWOOD PAS DRZL/FOG  50  46  87 CALM      30.60S VSB 1/2          
GUNNISON       CLOUDY    52  45  76 N7        30.51R                  
KREMMLING      MOSUNNY   46  37  71 CALM      30.43R                  
LEADVILLE      CLOUDY    47  45  93 CALM      30.58R                  
MONARCH PASS   LGT RAIN  43  41  93 CALM      30.82R VSB<1/4          
SALIDA         CLOUDY    55  54  94 CALM      30.56R                  
SUNLIGHT       CLOUDY    48  45  87 SW3       30.62R                  
WILKERSON PASS NOT AVBL                                               
$$

COZ069>075-211500-
...SAN LUIS VALLEY/SANGRE DE CRISTO MOUNTAINS...
  
CITY           SKY/WX    TMP DP  RH WIND       PRES   REMARKS
ALAMOSA        MOSUNNY   55  45  68 SW5       30.45R                  
LA VETA PASS   SNOW      45  45 100 NE7       30.63R VSB<1/4          
SAGUACHE       NOT AVBL                                               
$$

COZ035-036-038>040-211500-
...NORTHERN COLORADO FRONT RANGE...
  
CITY           SKY/WX    TMP DP  RH WIND       PRES   REMARKS
DENVER INTL AP PTSUNNY   58  45  62 NW10      30.38R                  
DMNS CITY PARK   N/A     58  45  60 E1        30.39S                  
AURORA         PTSUNNY   56  45  66 W5        30.41R                  
FRONT RANGE AP NOT AVBL                                               
ERIE MUNI ARPT NOT AVBL                                               
BOULDER MUN AP PTSUNNY   57  45  62 N3        30.39R                  
CENTENNIAL     PTSUNNY   56  46  69 SW6       30.41R                  
BROOMFIELD     NOT AVBL                                               
FORT COLLINS   PTSUNNY   59  41  51 NE8       30.40R                  
LONGMONT       PTSUNNY   61  45  56 NE5       30.40S                  
$$

COZ041-046-047-076>085-087-088-211500-
...PIKES PEAK/PALMER DIVIDE AND SOUTHERN FOOTHILLS...
  
CITY           SKY/WX    TMP DP  RH WIND       PRES   REMARKS
COLO. SPRINGS  PTSUNNY   58  53  84 SE10      30.45R                  
A. F. ACADEMY  PTSUNNY   57  52  81 S5        30.44R                  
ELLICOTT       NOT AVBL                                               
FALCON         CLOUDY    56  52  84 SE7       30.48R                  
FORT CARSON    PTSUNNY   58  52  79 S6        30.42R                  
LIMON          CLOUDY    55  42  61 S8        30.41R                  
MONUMENT HILL  CLOUDY    54  48  82 W3        30.46R                  
TRINIDAD       PTSUNNY   59  54  83 CALM      30.41S                  
$$

COZ042>045-048>051-090-091-211500-
...NORTHEAST COLORADO...
  
CITY           SKY/WX    TMP DP  RH WIND       PRES   REMARKS
GREELEY ARPT   CLOUDY    57  39  51 NE8       30.40R                  
AKRON          CLOUDY    56  44  64 SE6       30.40R                  
BURLINGTON     CLOUDY    55  47  74 CALM      30.38R                  
WRAY           CLOUDY    55  47  75 NW5       30.38R                  
STERLING       CLOUDY    59  50  72 CALM      30.38R                  
HOLYOKE        MOSUNNY   55  48  76 CALM      30.38R                  
FORT MORGAN    CLOUDY    56  44  64 E6        30.39S                  
$$

COZ086-089-092>099-211500-
...SOUTHEAST COLORADO...
  
CITY           SKY/WX    TMP DP  RH WIND       PRES   REMARKS
PUEBLO         PTSUNNY   61  58  90 E9        30.38R                  
LA JUNTA       CLOUDY    62  45  53 E14       30.35R                  
LAMAR          PTSUNNY   60  49  66 CALM      30.34R                  
SPRINGFIELD      N/A     59  47  64 NE10      30.36R                  
$$

Return to Home page


Western Regional Climate Center, wrcc@dri.edu